Location: Cassano d�Adda
(45.5333°N, 9.5167°E)
Time: 17:48:00
(UTC+00:00)

CZ-4 R/B - Pass Details

Date: 08 December 2019
Orbit: 532 x 598 km, 97.7° (Epoch: 19 January)

Event Time Altitude Azimuth Distance (km) Brightness Sun altitude
Rises 18:40:00 0° 204° (SSW) 2,719 5.2 -30.9°
Reaches altitude 10° 18:42:42 10° 224° (SW) 1,819 4.4 -31.3°
Maximum altitude 18:45:24 18° 267° (W) 1,387 4.1 -31.8°
Drops below altitude 10° 18:48:06 10° 311° (NW) 1,809 4.5 -32.3°
Sets 18:50:47 0° 331° (NNW) 2,699 5.2 -32.8°
